Location: Bergheim
(50.9593°N, 6.6400°E)
Time: 23:46:54
(UTC+02:00)

ISS - Visible Passes

Search period start: 01 October 2020 00:00
Search period end: 11 October 2020 00:00
Orbit: 419 x 421 km, 51.6° (Epoch: 02 October)

Date Brightness Start Highest point End Pass type
(mag) Time Alt. Az. Time Alt. Az. Time Alt. Az.
01 Oct -3.0 21:05:05 10° W 21:08:18 41° SSW 21:08:41 39° S visible
02 Oct -3.3 20:17:46 10° W 20:21:05 56° SSW 20:23:18 19° SE visible
02 Oct -0.9 21:55:24 10° WSW 21:56:17 13° WSW 21:56:17 13° WSW visible
03 Oct -1.8 21:07:39 10° W 21:10:17 21° SW 21:10:57 20° SSW visible
04 Oct -2.1 20:20:08 10° W 20:23:08 29° SSW 20:25:41 13° SSE visible
05 Oct -2.6 19:32:43 10° W 19:35:56 41° SSW 19:39:07 10° SE visible
06 Oct -1.0 20:23:02 10° WSW 20:24:58 15° SW 20:26:54 10° S visible
07 Oct -1.3 19:35:13 10° W 19:37:50 21° SW 19:40:26 10° SSE visible
